datetime,flow volume
1963-10-01,2380.16529
1963-10-02,2280.99174
1963-10-03,2181.81818
1963-10-04,2122.31405
1963-10-05,2023.1405
1963-10-06,1943.80165
1963-10-07,1904.13223
1963-10-08,1864.46281
1963-10-09,1824.79339
1963-10-10,1785.12397
1963-10-11,1729.58678
1963-10-12,1705.78512
1963-10-13,1640.33058
1963-10-14,1596.69421
1963-10-15,1574.87603
1963-10-16,1574.87603
1963-10-17,1553.05785
1963-10-18,1553.05785
1963-10-19,1531.23967
1963-10-20,1531.23967
1963-10-21,1531.23967
1963-10-22,1531.23967
1963-10-23,1509.42149
1963-10-24,1531.23967
1963-10-25,1574.87603
1963-10-26,1531.23967
1963-10-27,1487.60331
1963-10-28,1487.60331
1963-10-29,1487.60331
1963-10-30,1574.87603
1963-10-31,1705.78512
1963-11-01,1705.78512
1963-11-02,1640.33058
1963-11-03,1596.69421
1963-11-04,1596.69421
1963-11-05,1640.33058
1963-11-06,1683.96694
1963-11-07,1753.38843
1963-11-08,1777.19008
1963-11-09,1800.99174
1963-11-10,1896.19835
1963-11-11,1896.19835
1963-11-12,1785.12397
1963-11-13,1745.45455
1963-11-14,1685.95041
1963-11-15,1685.95041
1963-11-16,1685.95041
1963-11-17,1586.77686
1963-11-18,1487.60331
1963-11-19,1467.7686
1963-11-20,1388.42975
1963-11-21,1487.60331
1963-11-22,1586.77686
1963-11-23,1487.60331
1963-11-24,1626.44628
1963-11-25,1666.1157
1963-11-26,1586.77686
1963-11-27,1626.44628
1963-11-28,1586.77686
1963-11-29,1388.42975
1963-11-30,1190.08264
1963-12-01,1090.90909
1963-12-02,1150.41322
1963-12-03,1071.07438
1963-12-04,1071.07438
1963-12-05,1150.41322
1963-12-06,1031.40496
1963-12-07,1388.42975
1963-12-08,1983.47107
1963-12-09,1785.12397
1963-12-10,1586.77686
1963-12-11,1685.95041
1963-12-12,1685.95041
1963-12-13,1586.77686
1963-12-14,1685.95041
1963-12-15,1785.12397
1963-12-16,1884.29752
1963-12-17,1983.47107
1963-12-18,1983.47107
1963-12-19,1884.29752
1963-12-20,1785.12397
1963-12-21,1586.77686
1963-12-22,1487.60331
1963-12-23,1388.42975
1963-12-24,1289.2562
1963-12-25,1190.08264
1963-12-26,1090.90909
1963-12-27,1090.90909
1963-12-28,991.73554
1963-12-29,991.73554
1963-12-30,952.06612
1963-12-31,952.06612
1964-01-01,912.39669
1964-01-02,912.39669
1964-01-03,872.72727
1964-01-04,872.72727
1964-01-05,833.05785
1964-01-06,793.38843
1964-01-07,793.38843
1964-01-08,793.38843
1964-01-09,753.71901
1964-01-10,714.04959
1964-01-11,714.04959
1964-01-12,674.38017
1964-01-13,674.38017
1964-01-14,714.04959
1964-01-15,753.71901
1964-01-16,793.38843
1964-01-17,793.38843
1964-01-18,793.38843
1964-01-19,833.05785
1964-01-20,872.72727
1964-01-21,833.05785
1964-01-22,793.38843
1964-01-23,753.71901
1964-01-24,714.04959
1964-01-25,714.04959
1964-01-26,714.04959
1964-01-27,714.04959
1964-01-28,714.04959
1964-01-29,714.04959
1964-01-30,714.04959
1964-01-31,714.04959
1964-02-01,714.04959
1964-02-02,714.04959
1964-02-03,753.71901
1964-02-04,793.38843
1964-02-05,833.05785
1964-02-06,833.05785
1964-02-07,833.05785
1964-02-08,872.72727
1964-02-09,872.72727
1964-02-10,912.39669
1964-02-11,912.39669
1964-02-12,872.72727
1964-02-13,872.72727
1964-02-14,833.05785
1964-02-15,793.38843
1964-02-16,793.38843
1964-02-17,793.38843
1964-02-18,793.38843
1964-02-19,793.38843
1964-02-20,793.38843
1964-02-21,793.38843
1964-02-22,793.38843
1964-02-23,793.38843
1964-02-24,793.38843
1964-02-25,793.38843
1964-02-26,793.38843
1964-02-27,793.38843
1964-02-28,793.38843
1964-02-29,793.38843
1964-03-01,793.38843
1964-03-02,793.38843
1964-03-03,793.38843
1964-03-04,793.38843
1964-03-05,793.38843
1964-03-06,793.38843
1964-03-07,793.38843
1964-03-08,753.71901
1964-03-09,753.71901
1964-03-10,753.71901
1964-03-11,793.38843
1964-03-12,793.38843
1964-03-13,793.38843
1964-03-14,793.38843
1964-03-15,833.05785
1964-03-16,833.05785
1964-03-17,833.05785
1964-03-18,872.72727
1964-03-19,872.72727
1964-03-20,872.72727
1964-03-21,912.39669
1964-03-22,912.39669
1964-03-23,912.39669
1964-03-24,952.06612
1964-03-25,952.06612
1964-03-26,952.06612
1964-03-27,952.06612
1964-03-28,991.73554
1964-03-29,991.73554
1964-03-30,1090.90909
1964-03-31,1090.90909
1964-04-01,1090.90909
1964-04-02,1090.90909
1964-04-03,1190.08264
1964-04-04,1289.2562
1964-04-05,1388.42975
1964-04-06,1586.77686
1964-04-07,1983.47107
1964-04-08,2380.16529
1964-04-09,2181.81818
1964-04-10,2380.16529
1964-04-11,2578.5124
1964-04-12,2975.20661
1964-04-13,2776.8595
1964-04-14,2578.5124
1964-04-15,2697.52066
1964-04-16,3133.8843
1964-04-17,3471.07438
1964-04-18,3609.91736
1964-04-19,3312.39669
1964-04-20,3153.71901
1964-04-21,3153.71901
1964-04-22,2876.03306
1964-04-23,2697.52066
1964-04-24,2657.85124
1964-04-25,2598.34711
1964-04-26,2280.99174
1964-04-27,2102.47934
1964-04-28,2201.65289
1964-04-29,2499.17355
1964-04-30,3352.06612
1964-05-01,4125.61983
1964-05-02,4304.13223
1964-05-03,3510.7438
1964-05-04,2876.03306
1964-05-05,3054.54545
1964-05-06,3133.8843
1964-05-07,2975.20661
1964-05-08,2876.03306
1964-05-09,2935.53719
1964-05-10,3034.71074
1964-05-11,2935.53719
1964-05-12,2935.53719
1964-05-13,2935.53719
1964-05-14,3193.38843
1964-05-15,3510.7438
1964-05-16,3788.42975
1964-05-17,4026.44628
1964-05-18,4343.80165
1964-05-19,4700.82645
1964-05-20,5216.52893
1964-05-21,6426.44628
1964-05-22,7854.54545
1964-05-23,8826.44628
1964-05-24,8330.57851
1964-05-25,7477.68595
1964-05-26,7120.66116
1964-05-27,8231.40496
1964-05-28,9461.15702
1964-05-29,12019.8347
1964-05-30,11900.8265
1964-05-31,9996.69421
1964-06-01,9361.98347
1964-06-02,8528.92562
1964-06-03,8033.05785
1964-06-04,7993.38843
1964-06-05,7993.38843
1964-06-06,8489.2562
1964-06-07,10928.9256
1964-06-08,15748.7603
1964-06-09,18446.281
1964-06-10,17335.5372
1964-06-11,13646.281
1964-06-12,11960.3306
1964-06-13,10413.2231
1964-06-14,9580.16529
1964-06-15,8885.95041
1964-06-16,8945.45455
1964-06-17,9897.52066
1964-06-18,12396.6942
1964-06-19,12714.0496
1964-06-20,11960.3306
1964-06-21,10512.3967
1964-06-22,9897.52066
1964-06-23,8528.92562
1964-06-24,7299.17355
1964-06-25,6604.95868
1964-06-26,6644.6281
1964-06-27,7616.52893
1964-06-28,9461.15702
1964-06-29,11583.4711
1964-06-30,12595.0413
1964-07-01,13051.2397
1964-07-02,13507.438
1964-07-03,13309.0909
1964-07-04,12912.3967
1964-07-05,12277.686
1964-07-06,11583.4711
1964-07-07,11285.9504
1964-07-08,10928.9256
1964-07-09,10472.7273
1964-07-10,10016.5289
1964-07-11,9203.30579
1964-07-12,9044.6281
1964-07-13,9044.6281
1964-07-14,9302.47934
1964-07-15,9798.34711
1964-07-16,9361.98347
1964-07-17,8885.95041
1964-07-18,8568.59504
1964-07-19,8231.40496
1964-07-20,7795.04132
1964-07-21,7338.84298
1964-07-22,6902.47934
1964-07-23,6684.29752
1964-07-24,6386.77686
1964-07-25,6069.42149
1964-07-26,5633.05785
1964-07-27,5256.19835
1964-07-28,4760.33058
1964-07-29,4542.14876
1964-07-30,4442.97521
1964-07-31,4363.63636
1964-08-01,4363.63636
1964-08-02,4304.13223
1964-08-03,4125.61983
1964-08-04,3887.60331
1964-08-05,3649.58678
1964-08-06,3471.07438
1964-08-07,3292.56198
1964-08-08,3133.8843
1964-08-09,2975.20661
1964-08-10,2776.8595
1964-08-11,2618.18182
1964-08-12,2538.84298
1964-08-13,2578.5124
1964-08-14,2538.84298
1964-08-15,2400.0
1964-08-16,2261.15702
1964-08-17,2201.65289
1964-08-18,2142.14876
1964-08-19,2003.30579
1964-08-20,1896.19835
1964-08-21,1872.39669
1964-08-22,1896.19835
1964-08-23,1896.19835
1964-08-24,1800.99174
1964-08-25,1662.14876
1964-08-26,1574.87603
1964-08-27,1531.23967
1964-08-28,1509.42149
1964-08-29,1531.23967
1964-08-30,1553.05785
1964-08-31,1531.23967
1964-09-01,1467.7686
1964-09-02,1404.29752
1964-09-03,1384.46281
1964-09-04,1362.64463
1964-09-05,1320.99174
1964-09-06,1259.50413
1964-09-07,1239.66942
1964-09-08,1200.0
1964-09-09,1180.16529
1964-09-10,1140.49587
1964-09-11,1120.66116
1964-09-12,1080.99174
1964-09-13,1080.99174
1964-09-14,1100.82645
1964-09-15,1100.82645
1964-09-16,1120.66116
1964-09-17,1100.82645
1964-09-18,1120.66116
1964-09-19,1100.82645
1964-09-20,1120.66116
1964-09-21,1140.49587
1964-09-22,1120.66116
1964-09-23,1080.99174
1964-09-24,1063.1405
1964-09-25,892.56198
1964-09-26,892.56198
1964-09-27,987.7686
1964-09-28,987.7686
1964-09-29,987.7686
1964-09-30,987.7686
1964-10-01,967.93388
1964-10-02,967.93388
1964-10-03,948.09917
1964-10-04,930.24793
1964-10-05,930.24793
1964-10-06,930.24793
1964-10-07,930.24793
1964-10-08,967.93388
1964-10-09,967.93388
1964-10-10,967.93388
1964-10-11,948.09917
1964-10-12,967.93388
1964-10-13,967.93388
1964-10-14,967.93388
1964-10-15,987.7686
1964-10-16,967.93388
1964-10-17,1005.61983
1964-10-18,1005.61983
1964-10-19,1023.47107
1964-10-20,1023.47107
1964-10-21,1023.47107
1964-10-22,1043.30579
1964-10-23,1043.30579
1964-10-24,1080.99174
1964-10-25,1080.99174
1964-10-26,1080.99174
1964-10-27,1080.99174
1964-10-28,1080.99174
1964-10-29,1100.82645
1964-10-30,1140.49587
1964-10-31,1140.49587
1964-11-01,1140.49587
1964-11-02,1140.49587
1964-11-03,1140.49587
1964-11-04,1160.33058
1964-11-05,1120.66116
1964-11-06,1100.82645
1964-11-07,1100.82645
1964-11-08,1120.66116
1964-11-09,1120.66116
1964-11-10,1120.66116
1964-11-11,1110.7438
1964-11-12,1071.07438
1964-11-13,991.73554
1964-11-14,1090.90909
1964-11-15,971.90083
1964-11-16,813.22314
1964-11-17,852.89256
1964-11-18,952.06612
1964-11-19,892.56198
1964-11-20,932.2314
1964-11-21,932.2314
1964-11-22,833.05785
1964-11-23,872.72727
1964-11-24,932.2314
1964-11-25,991.73554
1964-11-26,991.73554
1964-11-27,942.14876
1964-11-28,942.14876
1964-11-29,991.73554
1964-11-30,1031.40496
1964-12-01,1071.07438
1964-12-02,1031.40496
1964-12-03,991.73554
1964-12-04,912.39669
1964-12-05,892.56198
1964-12-06,833.05785
1964-12-07,793.38843
1964-12-08,852.89256
1964-12-09,1011.57025
1964-12-10,991.73554
1964-12-11,952.06612
1964-12-12,892.56198
1964-12-13,773.55372
1964-12-14,872.72727
1964-12-15,912.39669
1964-12-16,892.56198
1964-12-17,793.38843
1964-12-18,694.21488
1964-12-19,753.71901
1964-12-20,892.56198
1964-12-21,1071.07438
1964-12-22,1150.41322
1964-12-23,1190.08264
1964-12-24,1170.24793
1964-12-25,1110.7438
1964-12-26,991.73554
1964-12-27,971.90083
1964-12-28,932.2314
1964-12-29,892.56198
1964-12-30,852.89256
1964-12-31,833.05785
1965-01-01,793.38843
1965-01-02,773.55372
1965-01-03,793.38843
1965-01-04,932.2314
1965-01-05,991.73554
1965-01-06,1031.40496
1965-01-07,991.73554
1965-01-08,952.06612
1965-01-09,932.2314
1965-01-10,892.56198
1965-01-11,872.72727
1965-01-12,852.89256
1965-01-13,952.06612
1965-01-14,1090.90909
1965-01-15,1170.24793
1965-01-16,1150.41322
1965-01-17,1130.57851
1965-01-18,1071.07438
1965-01-19,1150.41322
1965-01-20,1110.7438
1965-01-21,1031.40496
1965-01-22,991.73554
1965-01-23,971.90083
1965-01-24,1031.40496
1965-01-25,991.73554
1965-01-26,932.2314
1965-01-27,991.73554
1965-01-28,1071.07438
1965-01-29,1110.7438
1965-01-30,1130.57851
1965-01-31,1170.24793
1965-02-01,1071.07438
1965-02-02,991.73554
1965-02-03,1031.40496
1965-02-04,1071.07438
1965-02-05,1031.40496
1965-02-06,1071.07438
1965-02-07,991.73554
1965-02-08,952.06612
1965-02-09,932.2314
1965-02-10,912.39669
1965-02-11,892.56198
1965-02-12,912.39669
1965-02-13,952.06612
1965-02-14,991.73554
1965-02-15,952.06612
1965-02-16,991.73554
1965-02-17,1031.40496
1965-02-18,1071.07438
1965-02-19,1071.07438
1965-02-20,1031.40496
1965-02-21,991.73554
1965-02-22,1031.40496
1965-02-23,991.73554
1965-02-24,971.90083
1965-02-25,1031.40496
1965-02-26,1071.07438
1965-02-27,1110.7438
1965-02-28,1071.07438
1965-03-01,1031.40496
1965-03-02,991.73554
1965-03-03,932.2314
1965-03-04,932.2314
1965-03-05,952.06612
1965-03-06,991.73554
1965-03-07,1031.40496
1965-03-08,1031.40496
1965-03-09,991.73554
1965-03-10,952.06612
1965-03-11,932.2314
1965-03-12,991.73554
1965-03-13,1031.40496
1965-03-14,991.73554
1965-03-15,991.73554
1965-03-16,1031.40496
1965-03-17,1110.7438
1965-03-18,1031.40496
1965-03-19,912.39669
1965-03-20,932.2314
1965-03-21,932.2314
1965-03-22,1031.40496
1965-03-23,1071.07438
1965-03-24,991.73554
1965-03-25,952.06612
1965-03-26,991.73554
1965-03-27,1031.40496
1965-03-28,1150.41322
1965-03-29,1309.09091
1965-03-30,1447.93388
1965-03-31,1586.77686
1965-04-01,1785.12397
1965-04-02,2380.16529
1965-04-03,2578.5124
1965-04-04,2578.5124
1965-04-05,2776.8595
1965-04-06,3034.71074
1965-04-07,3213.22314
1965-04-08,2935.53719
1965-04-09,3094.21488
1965-04-10,2836.36364
1965-04-11,2717.35537
1965-04-12,2876.03306
1965-04-13,2776.8595
1965-04-14,2657.85124
1965-04-15,2479.33884
1965-04-16,2618.18182
1965-04-17,2935.53719
1965-04-18,3153.71901
1965-04-19,3034.71074
1965-04-20,3252.89256
1965-04-21,3788.42975
1965-04-22,4542.14876
1965-04-23,4919.00826
1965-04-24,5295.86777
1965-04-25,5335.53719
1965-04-26,5553.71901
1965-04-27,5593.38843
1965-04-28,5375.20661
1965-04-29,5295.86777
1965-04-30,5434.71074
1965-05-01,5910.7438
1965-05-02,6347.10744
1965-05-03,6466.1157
1965-05-04,6347.10744
1965-05-05,6228.09917
1965-05-06,6466.1157
1965-05-07,5514.04959
1965-05-08,4998.34711
1965-05-09,4839.66942
1965-05-10,4700.82645
1965-05-11,4442.97521
1965-05-12,4046.28099
1965-05-13,4185.12397
1965-05-14,4661.15702
1965-05-15,4800.0
1965-05-16,5176.8595
1965-05-17,5474.38017
1965-05-18,5910.7438
1965-05-19,6069.42149
1965-05-20,6069.42149
1965-05-21,6466.1157
1965-05-22,6604.95868
1965-05-23,6228.09917
1965-05-24,6723.96694
1965-05-25,7299.17355
1965-05-26,6803.30579
1965-05-27,6188.42975
1965-05-28,5593.38843
1965-05-29,5395.04132
1965-05-30,5474.38017
1965-05-31,6267.7686
1965-06-01,7695.86777
1965-06-02,8885.95041
1965-06-03,9580.16529
1965-06-04,9957.02479
1965-06-05,10750.4132
1965-06-06,10928.9256
1965-06-07,10988.4298
1965-06-08,12000.0
1965-06-09,13745.4546
1965-06-10,15550.4132
1965-06-11,17434.7107
1965-06-12,19834.7107
1965-06-13,24000.0
1965-06-14,24991.7355
1965-06-15,26578.5124
1965-06-16,26380.1653
1965-06-17,24793.3884
1965-06-18,23801.6529
1965-06-19,23206.6116
1965-06-20,20826.4463
1965-06-21,18585.124
1965-06-22,18148.7603
1965-06-23,18585.124
1965-06-24,20033.0579
1965-06-25,22611.5703
1965-06-26,25388.4298
1965-06-27,28561.9835
1965-06-28,30545.4546
1965-06-29,27570.2479
1965-06-30,20826.4463
1965-07-01,16204.9587
1965-07-02,13983.4711
1965-07-03,14241.3223
1965-07-04,14895.8678
1965-07-05,15550.4132
1965-07-06,16145.4546
1965-07-07,16482.6446
1965-07-08,16958.6777
1965-07-09,17295.8678
1965-07-10,17018.1818
1965-07-11,16819.8347
1965-07-12,16760.3306
1965-07-13,16343.8017
1965-07-14,16204.9587
1965-07-15,15808.2645
1965-07-16,15014.876
1965-07-17,13983.4711
1965-07-18,13428.0992
1965-07-19,13229.7521
1965-07-20,12991.7355
1965-07-21,12932.2314
1965-07-22,12614.876
1965-07-23,12376.8595
1965-07-24,11880.9917
1965-07-25,11107.438
1965-07-26,11880.9917
1965-07-27,11761.9835
1965-07-28,10988.4298
1965-07-29,10175.2066
1965-07-30,9401.65289
1965-07-31,9242.97521
1965-08-01,8826.44628
1965-08-02,8429.75207
1965-08-03,8290.90909
1965-08-04,7477.68595
1965-08-05,6763.63636
1965-08-06,6267.7686
1965-08-07,5910.7438
1965-08-08,5633.05785
1965-08-09,5256.19835
1965-08-10,4998.34711
1965-08-11,4919.00826
1965-08-12,4800.0
1965-08-13,4700.82645
1965-08-14,4760.33058
1965-08-15,4760.33058
1965-08-16,4760.33058
1965-08-17,4522.31405
1965-08-18,4304.13223
1965-08-19,5295.86777
1965-08-20,6267.7686
1965-08-21,5950.41322
1965-08-22,5791.73554
1965-08-23,5831.40496
1965-08-24,5752.06612
1965-08-25,5295.86777
1965-08-26,4879.33884
1965-08-27,4581.81818
1965-08-28,4343.80165
1965-08-29,4046.28099
1965-08-30,3887.60331
1965-08-31,3709.09091
1965-09-01,3570.24793
1965-09-02,3451.23967
1965-09-03,3292.56198
1965-09-04,3193.38843
1965-09-05,3054.54545
1965-09-06,4304.13223
1965-09-07,5137.19008
1965-09-08,4879.33884
1965-09-09,4442.97521
1965-09-10,4085.95041
1965-09-11,3808.26446
1965-09-12,3550.41322
1965-09-13,3292.56198
1965-09-14,2895.86777
1965-09-15,3133.8843
1965-09-16,3133.8843
1965-09-17,3371.90083
1965-09-18,3609.91736
1965-09-19,3609.91736
1965-09-20,3570.24793
1965-09-21,3510.7438
1965-09-22,3371.90083
1965-09-23,3352.06612
1965-09-24,3252.89256
1965-09-25,3153.71901
1965-09-26,2995.04132
1965-09-27,2935.53719
1965-09-28,2935.53719
1965-09-29,2975.20661
1965-09-30,2995.04132
1965-10-01,2995.04132
1965-10-02,2895.86777
1965-10-03,2816.52893
1965-10-04,2776.8595
1965-10-05,2717.35537
1965-10-06,2776.8595
1965-10-07,2618.18182
1965-10-08,2499.17355
1965-10-09,2459.50413
1965-10-10,2419.83471
1965-10-11,2360.33058
1965-10-12,2340.49587
1965-10-13,2320.66116
1965-10-14,2280.99174
1965-10-15,2280.99174
1965-10-16,2419.83471
1965-10-17,2717.35537
1965-10-18,2737.19008
1965-10-19,2657.85124
1965-10-20,2578.5124
1965-10-21,2538.84298
1965-10-22,2499.17355
1965-10-23,2459.50413
1965-10-24,2419.83471
1965-10-25,2340.49587
1965-10-26,2320.66116
1965-10-27,2280.99174
1965-10-28,2280.99174
1965-10-29,2221.4876
1965-10-30,2201.65289
1965-10-31,2181.81818
1965-11-01,2142.14876
1965-11-02,2042.97521
1965-11-03,2042.97521
1965-11-04,2062.80992
1965-11-05,2062.80992
1965-11-06,2042.97521
1965-11-07,1943.80165
1965-11-08,1920.0
1965-11-09,1920.0
1965-11-10,1943.80165
1965-11-11,1969.58678
1965-11-12,1920.0
1965-11-13,1896.19835
1965-11-14,1943.80165
1965-11-15,2003.30579
1965-11-16,2003.30579
1965-11-17,2042.97521
1965-11-18,2062.80992
1965-11-19,2142.14876
1965-11-20,2221.4876
1965-11-21,2181.81818
1965-11-22,1969.58678
1965-11-23,1896.19835
1965-11-24,2102.47934
1965-11-25,2062.80992
1965-11-26,2003.30579
1965-11-27,1467.7686
1965-11-28,1388.42975
1965-11-29,1289.2562
1965-11-30,1249.58678
1965-12-01,1269.42149
1965-12-02,1388.42975
1965-12-03,1507.43802
1965-12-04,1547.10744
1965-12-05,1507.43802
1965-12-06,1467.7686
1965-12-07,1388.42975
1965-12-08,1348.76033
1965-12-09,1348.76033
1965-12-10,1388.42975
1965-12-11,1467.7686
1965-12-12,1586.77686
1965-12-13,1547.10744
1965-12-14,1586.77686
1965-12-15,1467.7686
1965-12-16,1348.76033
1965-12-17,1269.42149
1965-12-18,1190.08264
1965-12-19,1150.41322
1965-12-20,1190.08264
1965-12-21,1269.42149
1965-12-22,1190.08264
1965-12-23,1269.42149
1965-12-24,1309.09091
1965-12-25,1229.75207
1965-12-26,1110.7438
1965-12-27,1190.08264
1965-12-28,1150.41322
1965-12-29,1190.08264
1965-12-30,1269.42149
1965-12-31,1388.42975
1966-01-01,1309.09091
1966-01-02,1348.76033
1966-01-03,1229.75207
1966-01-04,1110.7438
1966-01-05,1190.08264
1966-01-06,1309.09091
1966-01-07,1507.43802
1966-01-08,1586.77686
1966-01-09,1507.43802
1966-01-10,1428.09917
1966-01-11,1348.76033
1966-01-12,1348.76033
1966-01-13,1388.42975
1966-01-14,1348.76033
1966-01-15,1388.42975
1966-01-16,1309.09091
1966-01-17,1190.08264
1966-01-18,1110.7438
1966-01-19,1031.40496
1966-01-20,991.73554
1966-01-21,1031.40496
1966-01-22,991.73554
1966-01-23,991.73554
1966-01-24,1051.23967
1966-01-25,1051.23967
1966-01-26,1071.07438
1966-01-27,1071.07438
1966-01-28,1071.07438
1966-01-29,991.73554
1966-01-30,1031.40496
1966-01-31,1051.23967
1966-02-01,1071.07438
1966-02-02,1071.07438
1966-02-03,1071.07438
1966-02-04,1071.07438
1966-02-05,1051.23967
1966-02-06,1071.07438
1966-02-07,1071.07438
1966-02-08,1071.07438
1966-02-09,1071.07438
1966-02-10,1051.23967
1966-02-11,1071.07438
1966-02-12,1011.57025
1966-02-13,991.73554
1966-02-14,932.2314
1966-02-15,991.73554
1966-02-16,991.73554
1966-02-17,991.73554
1966-02-18,1011.57025
1966-02-19,1031.40496
1966-02-20,1071.07438
1966-02-21,1071.07438
1966-02-22,1071.07438
1966-02-23,1051.23967
1966-02-24,1051.23967
1966-02-25,1051.23967
1966-02-26,1011.57025
1966-02-27,991.73554
1966-02-28,991.73554
1966-03-01,1051.23967
1966-03-02,1071.07438
1966-03-03,1110.7438
1966-03-04,1031.40496
1966-03-05,991.73554
1966-03-06,971.90083
1966-03-07,991.73554
1966-03-08,1071.07438
1966-03-09,1150.41322
1966-03-10,1229.75207
1966-03-11,1190.08264
1966-03-12,1150.41322
1966-03-13,1190.08264
1966-03-14,1229.75207
1966-03-15,1269.42149
1966-03-16,1309.09091
1966-03-17,1269.42149
1966-03-18,1229.75207
1966-03-19,1190.08264
1966-03-20,1229.75207
1966-03-21,1229.75207
1966-03-22,1190.08264
1966-03-23,1150.41322
1966-03-24,1190.08264
1966-03-25,1229.75207
1966-03-26,1348.76033
1966-03-27,1467.7686
1966-03-28,1685.95041
1966-03-29,1884.29752
1966-03-30,2181.81818
1966-03-31,2975.20661
1966-04-01,4958.67769
1966-04-02,6347.10744
1966-04-03,6347.10744
1966-04-04,5950.41322
1966-04-05,5157.02479
1966-04-06,4700.82645
1966-04-07,4998.34711
1966-04-08,5018.18182
1966-04-09,4661.15702
1966-04-10,4264.46281
1966-04-11,4046.28099
1966-04-12,3510.7438
1966-04-13,3054.54545
1966-04-14,2836.36364
1966-04-15,2776.8595
1966-04-16,2776.8595
1966-04-17,2995.04132
1966-04-18,3094.21488
1966-04-19,2876.03306
1966-04-20,2340.49587
1966-04-21,2340.49587
1966-04-22,2459.50413
1966-04-23,2479.33884
1966-04-24,2538.84298
1966-04-25,2499.17355
1966-04-26,2519.00826
1966-04-27,2538.84298
1966-04-28,2400.0
1966-04-29,2161.98347
1966-04-30,2042.97521
1966-05-01,2042.97521
1966-05-02,1981.4876
1966-05-03,2082.64463
1966-05-04,2340.49587
1966-05-05,2717.35537
1966-05-06,3173.55372
1966-05-07,3947.10744
1966-05-08,5256.19835
1966-05-09,6981.81818
1966-05-10,8231.40496
1966-05-11,9639.66942
1966-05-12,9381.81818
1966-05-13,7557.02479
1966-05-14,6565.28926
1966-05-15,5652.89256
1966-05-16,4800.0
1966-05-17,4165.28926
1966-05-18,3788.42975
1966-05-19,3371.90083
1966-05-20,3213.22314
1966-05-21,3054.54545
1966-05-22,3312.39669
1966-05-23,4185.12397
1966-05-24,4482.64463
1966-05-25,4204.95868
1966-05-26,4085.95041
1966-05-27,4482.64463
1966-05-28,5216.52893
1966-05-29,6327.27273
1966-05-30,7140.49587
1966-05-31,7814.87603
1966-06-01,8409.91736
1966-06-02,8568.59504
1966-06-03,7636.36364
1966-06-04,6485.95041
1966-06-05,5791.73554
1966-06-06,5137.19008
1966-06-07,4542.14876
1966-06-08,4403.30579
1966-06-09,4819.83471
1966-06-10,5018.18182
1966-06-11,5018.18182
1966-06-12,5256.19835
1966-06-13,5097.52066
1966-06-14,4462.80992
1966-06-15,3887.60331
1966-06-16,3411.57025
1966-06-17,3173.55372
1966-06-18,3213.22314
1966-06-19,3689.2562
1966-06-20,4105.78512
1966-06-21,4423.1405
1966-06-22,5295.86777
1966-06-23,6704.13223
1966-06-24,7457.85124
1966-06-25,7596.69421
1966-06-26,6763.63636
1966-06-27,5474.38017
1966-06-28,4363.63636
1966-06-29,3609.91736
1966-06-30,3371.90083
1966-07-01,3510.7438
1966-07-02,4006.61157
1966-07-03,3986.77686
1966-07-04,3649.58678
1966-07-05,3411.57025
1966-07-06,3233.05785
1966-07-07,3034.71074
1966-07-08,2737.19008
1966-07-09,2459.50413
1966-07-10,2380.16529
1966-07-11,2499.17355
1966-07-12,2499.17355
1966-07-13,2538.84298
1966-07-14,2618.18182
1966-07-15,2578.5124
1966-07-16,2459.50413
1966-07-17,2380.16529
1966-07-18,2380.16529
1966-07-19,2380.16529
1966-07-20,2439.66942
1966-07-21,2439.66942
1966-07-22,2538.84298
1966-07-23,2538.84298
1966-07-24,2419.83471
1966-07-25,2360.33058
1966-07-26,2360.33058
1966-07-27,2439.66942
1966-07-28,2300.82645
1966-07-29,2181.81818
1966-07-30,2122.31405
1966-07-31,2023.1405
1966-08-01,2023.1405
1966-08-02,1983.47107
1966-08-03,2062.80992
1966-08-04,2102.47934
1966-08-05,2181.81818
1966-08-06,2142.14876
1966-08-07,2181.81818
1966-08-08,2221.4876
1966-08-09,2181.81818
1966-08-10,2042.97521
1966-08-11,1904.13223
1966-08-12,1824.79339
1966-08-13,1725.61983
1966-08-14,1705.78512
1966-08-15,1705.78512
1966-08-16,1666.1157
1966-08-17,1626.44628
1966-08-18,1507.43802
1966-08-19,1507.43802
1966-08-20,1527.27273
1966-08-21,1547.10744
1966-08-22,1507.43802
1966-08-23,1428.09917
1966-08-24,1447.93388
1966-08-25,1408.26446
1966-08-26,1348.76033
1966-08-27,1388.42975
1966-08-28,1348.76033
1966-08-29,1289.2562
1966-08-30,1249.58678
1966-08-31,1249.58678
1966-09-01,1269.42149
1966-09-02,1328.92562
1966-09-03,1685.95041
1966-09-04,1745.45455
1966-09-05,1646.28099
1966-09-06,1487.60331
1966-09-07,1447.93388
1966-09-08,1388.42975
1966-09-09,1309.09091
1966-09-10,1273.38843
1966-09-11,1239.66942
1966-09-12,1243.63636
1966-09-13,1261.4876
1966-09-14,1378.5124
1966-09-15,1513.38843
1966-09-16,1656.19835
1966-09-17,1703.80165
1966-09-18,1598.67769
1966-09-19,1491.57025
1966-09-20,1408.26446
1966-09-21,1350.7438
1966-09-22,1322.97521
1966-09-23,1289.2562
1966-09-24,1273.38843
1966-09-25,1307.10744
1966-09-26,1243.63636
1966-09-27,1217.85124
1966-09-28,1200.0
1966-09-29,1180.16529
1966-09-30,1148.42975
1966-10-01,1079.00826
1966-10-02,1079.00826
1966-10-03,1059.17355
1966-10-04,1079.00826
1966-10-05,1096.8595
1966-10-06,1059.17355
1966-10-07,1041.32231
1966-10-08,1023.47107
1966-10-09,1005.61983
1966-10-10,987.7686